ERS-1

Last updated on Wed Jul 02 2025 00:02:14 GMT+0000 (Coordinated Universal Time)

1 21574U 91050A 25182.60191252 .00000181 00000+0 73205-4 0 9998 2 21574 98.7912 189.4896 0031197 225.5822 134.2810 14.39206627779618
UTC large
Height (km)
Speed (km/s)
/
Latitude / Longitude
Inclination (degrees)
Orbital Period (minutes)
Azimuth
Elevation
Range (km)
Doppler Factor

Next 0 passes for location: London (51.5072 / 0.1276)

Sorry there are no passes over London.